This demonstration page uses our WeatherBlox Daily Observations layout. Learn more.

Left ArrowRight Arrow

Hourly Observations for May 28, 2020

Temp ( °F °C ) Dew Point ( °F °C ) Humidity (%) Winds ( mph kmh ) Pressure ( in mb ) Visibility ( mi km ) Precip ( " mm )
12:53 am 00:53 Clear 78 25.6 60 15.6 54 54 N 5 7 29.81 1009 10 16 0.00 0.00
1:53 am 01:53 Clear 76 24.4 60 15.6 58 58 NNW 6 9 29.81 1009 10 16 0.00 0.00
2:53 am 02:53 Clear 73 22.8 60 15.6 64 64 NNW 5 7 29.81 1009 10 16 0.00 0.00
3:53 am 03:53 Clear 72 22.2 60 15.6 66 66 NNW 3 6 29.81 1010 10 16 0.00 0.00
4:53 am 04:53 Clear 70 21.1 62 16.7 76 76 Calm 29.82 1010 10 16 0.00 0.00
5:53 am 05:53 Sunny 68 20 61 16.1 78 78 NW 5 7 29.83 1010 10 16 0.00 0.00
6:53 am 06:53 Sunny 73 22.8 64 17.8 74 74 Calm 29.84 1011 10 16 0.00 0.00
7:53 am 07:53 Sunny 78 25.6 61 16.1 56 56 N 6 9 29.84 1011 10 16 0.00 0.00
8:53 am 08:53 Sunny 81 27.2 61 16.1 51 51 VRB 5 7 29.85 1011 10 16 0.00 0.00
9:53 am 09:53 Sunny 86 30 60 15.6 42 42 Calm 29.85 1011 10 16 0.00 0.00
10:10 am 10:10 Mostly Sunny 87 30.6 61 16.1 42 42 Calm 29.83 1010 9 14 0.00 0.00
10:53 am 10:53 Sunny 89 31.7 61 16.1 39 39 SSW 3 6 29.84 1010 10 16 0.00 0.00
11:53 am 11:53 Sunny 91 32.8 61 16.1 37 37 VRB 3 6 29.83 1010 10 16 0.00 0.00
12:53 pm 12:53 Sunny 94 34.4 59 15 31 31 Calm 29.82 1010 10 16 0.00 0.00
1:53 pm 13:53 Sunny 96 35.6 57 13.9 27 27 ESE 6 9 29.81 1009 10 16 0.00 0.00
2:53 pm 14:53 Sunny 96 35.6 57 13.9 27 27 Calm 29.79 1009 10 16 0.00 0.00
3:53 pm 15:53 Sunny 98 36.7 51 10.6 20 20 SSW 6 9 29.77 1008 10 16 0.00 0.00
4:53 pm 16:53 Sunny 99 37.2 47 8.3 17 17 S 8 13 29.76 1008 10 16 0.00 0.00
5:53 pm 17:53 Sunny 99 37.2 49 9.4 18 18 SSE 9 15 29.75 1007 10 16 0.00 0.00
6:53 pm 18:53 Sunny 98 36.7 47 8.3 17 17 S 8 13 29.74 1007 10 16 0.00 0.00
7:53 pm 19:53 Sunny 94 34.4 58 14.4 30 30 Calm 29.74 1007 10 16 0.00 0.00
8:53 pm 20:53 Clear 86 30 63 17.2 46 46 Calm 29.75 1007 10 16 0.00 0.00
9:53 pm 21:53 Clear 82 27.8 61 16.1 49 49 Calm 29.76 1008 10 16 0.00 0.00
10:53 pm 22:53 Clear 79 26.1 64 17.8 60 60 N 5 7 29.78 1008 10 16 0.00 0.00
11:53 pm 23:53 Clear 77 25 63 17.2 62 62 Calm 29.78 1009 10 16 0.00 0.00

Powered by AerisWeather